{"data":{"norad_id":67973,"intl_designator":"2026-038N","name":"STARLINK-36900","alt_names":[],"object_type":"PAYLOAD","status":"ACTIVE","operator":null,"country":"US","launch_date":"2026-02-25","launch_site_code":"AFWTR","launch_vehicle":null,"mission":null,"orbit_class":"UNKNOWN","rcs_meters":null,"size_class":null,"mass_kg":null,"dimensions":null,"purposes":["comms"],"wikipedia_slug":null,"has_3d_model":false,"image_url":null,"decayed_at":null,"tle_current":{"epoch":"2026-09-19T01:25:27.042528Z","epoch_age_seconds":183959,"freshness":"STALE","line1":"1 67973U 26038N   26262.05934077  .00014483  00000+0  45001-3 0  9996","line2":"2 67973  97.2849 270.4354 0001673  97.5310 262.6123 15.33448530 32878","mean_motion":15.3344853,"eccentricity":0.0001673,"inclination_deg":97.2849,"raan_deg":270.4354,"arg_perigee_deg":97.531,"mean_anomaly_deg":262.6123,"bstar":0.00045001,"rev_number":3287,"period_min":93.905988484661,"perigee_km":464.38772576577,"apogee_km":466.67761763792,"semimajor_km":6843.6696717018,"source":"CELESTRAK","updated_at":"2026-09-20T09:00:43.731674Z"}}}